User: anonymous   Login
Location: Unspecified
(0.0000°N, 0.0000°E)
Time: 23:00:32
(UTC+00:00)
Language:

STARLINK-34216 - Orbit

View from above orbital plane
View from above orbital plane
View from above satellite
View from above satellite

Ground track
Ground track

The orbit is defined by the following mean orbital elements,

1 64337U          26145.12087779 +.00000000 +00000-0 +61440-3 0 00003
2 64337  43.0043  49.7108 0001367 261.0833  98.9864 15.27598092    00
Epoch (UTC): 25 May 2026 02:54:03
Eccentricity: 0.0001367
inclination: 43.0043°
perigee height: 482 km
apogee height: 484 km
right ascension of ascending node: 49.7108°
argument of perigee: 261.0833°
revolutions per day: 15.27598092
mean anomaly at epoch: 98.9864°

The dashed part of the orbit path shows where the satellite is in the earth's shadow,  

DLR